TimePDT,TemperatureF,Dew PointF,Humidity,Sea Level PressureIn,VisibilityMPH,Wind Direction,Wind SpeedMPH,Gust SpeedMPH,PrecipitationIn,Events,Conditions,WindDirDegrees,DateUTC
12:53 AM,52.0,45.0,77,29.99,10.0,West,9.2,-,N/A,,Partly Cloudy,280,2014-03-21 07:53:00
1:45 AM,53.6,46.4,77,29.98,10.0,Calm,Calm,-,N/A,,Mostly Cloudy,0,2014-03-21 08:45:00
1:53 AM,52.0,45.0,77,29.98,10.0,NW,3.5,-,N/A,,Mostly Cloudy,310,2014-03-21 08:53:00
2:53 AM,52.0,46.0,80,29.97,10.0,Calm,Calm,-,N/A,,Mostly Cloudy,0,2014-03-21 09:53:00
3:53 AM,52.0,45.0,77,29.96,10.0,SSW,5.8,-,N/A,,Scattered Clouds,210,2014-03-21 10:53:00
4:53 AM,48.9,44.1,83,29.96,9.0,Calm,Calm,-,N/A,,Scattered Clouds,0,2014-03-21 11:53:00
5:10 AM,48.2,44.6,87,29.96,9.0,Calm,Calm,-,N/A,,Mostly Cloudy,0,2014-03-21 12:10:00
5:53 AM,48.9,44.1,83,29.96,10.0,Calm,Calm,-,N/A,,Scattered Clouds,0,2014-03-21 12:53:00
6:04 AM,50.0,44.6,82,29.97,9.0,SW,5.8,-,N/A,,Mostly Cloudy,230,2014-03-21 13:04:00
6:31 AM,51.8,44.6,76,29.96,10.0,SW,10.4,-,N/A,,Scattered Clouds,230,2014-03-21 13:31:00
6:53 AM,52.0,45.0,77,29.97,10.0,WSW,9.2,-,N/A,,Partly Cloudy,240,2014-03-21 13:53:00
7:53 AM,52.0,45.0,77,29.98,9.0,West,4.6,-,N/A,,Mostly Cloudy,260,2014-03-21 14:53:00
8:53 AM,53.1,45.0,74,29.99,9.0,WSW,6.9,-,N/A,,Mostly Cloudy,240,2014-03-21 15:53:00
9:53 AM,55.0,45.0,69,30.01,10.0,SW,4.6,-,N/A,,Partly Cloudy,230,2014-03-21 16:53:00
10:53 AM,55.9,45.0,67,30.01,10.0,WSW,4.6,-,N/A,,Partly Cloudy,250,2014-03-21 17:53:00
11:53 AM,57.0,45.0,64,30.01,10.0,WSW,4.6,-,N/A,,Scattered Clouds,250,2014-03-21 18:53:00
12:53 PM,59.0,45.0,60,29.99,10.0,Calm,Calm,-,N/A,,Scattered Clouds,0,2014-03-21 19:53:00
1:53 PM,62.1,45.0,53,29.98,10.0,West,8.1,-,N/A,,Scattered Clouds,270,2014-03-21 20:53:00
2:53 PM,63.0,46.0,54,29.97,10.0,WNW,12.7,-,N/A,,Partly Cloudy,290,2014-03-21 21:53:00
3:53 PM,62.1,45.0,53,29.96,10.0,WNW,13.8,-,N/A,,Partly Cloudy,300,2014-03-21 22:53:00
4:53 PM,61.0,46.9,60,29.96,10.0,WNW,17.3,21.9,N/A,,Partly Cloudy,290,2014-03-21 23:53:00
5:53 PM,59.0,46.9,64,29.96,10.0,WNW,13.8,24.2,N/A,,Partly Cloudy,300,2014-03-22 00:53:00
6:53 PM,57.0,46.9,69,29.96,10.0,WNW,11.5,-,N/A,,Clear,290,2014-03-22 01:53:00
7:53 PM,54.0,46.9,77,29.97,10.0,WNW,10.4,-,N/A,,Partly Cloudy,290,2014-03-22 02:53:00
8:53 PM,54.0,46.9,77,29.99,10.0,WSW,13.8,-,N/A,,Partly Cloudy,250,2014-03-22 03:53:00
9:53 PM,53.1,46.0,77,30.00,10.0,West,12.7,-,N/A,,Partly Cloudy,260,2014-03-22 04:53:00
10:53 PM,53.1,45.0,74,30.00,10.0,West,11.5,-,N/A,,Partly Cloudy,260,2014-03-22 05:53:00
11:53 PM,53.1,45.0,74,30.01,10.0,West,11.5,-,N/A,,Partly Cloudy,260,2014-03-22 06:53:00